Hourly Data Report for October 03, 2017

All times are specified in Local Standard Time (LST). Add 1 hour to adjust for Daylight Saving Time where and when it is observed.

WHALE COVE A
NUNAVUT

62°14'24.000" N
92°35'53.000" W
12.20 m
2303990
YXN

Related Data

No related data is available for this station

Download Data

Hourly Data (October 2017)
Hourly Data Report for October 3, 2017
Temp Definition
°C
Dew Point Temp Definition
°C
Rel Hum Definition
%
Wind Dir Definition
10's deg

Wind Spd Definition
km/h
Visibility Definition
km
Stn Press Definition
kPa
Hmdx Definition


Wind Chill Definition


Weather Definition


TIME
00:00 Legend Double Dagger -0.1 -3.4 79 30 33 LegendMM 100.83   -7 LegendNANA
01:00 Legend Double Dagger -0.4 -3.6 79 30 38 LegendMM 100.80   -8 LegendNANA
02:00 Legend Double Dagger -0.5 -3.6 80 30 45 LegendMM 100.82   -8 LegendNANA
03:00 Legend Double Dagger -0.8 -3.9 80 30 38 LegendMM 100.86   -8 LegendNANA
04:00 Legend Double Dagger -0.8 -4.2 78 30 41 LegendMM 100.91   -9 LegendNANA
05:00 Legend Double Dagger -0.8 -4.5 76 31 45 LegendMM 100.94   -9 LegendNANA
06:00 Legend Double Dagger -0.8 -4.3 77 31 41 LegendMM 100.96   -9 LegendNANA
07:00 Legend Double Dagger -1.2 -4.5 78 30 41 LegendMM 100.96   -9 LegendNANA
08:00 Legend Double Dagger -0.1 -4.4 73 30 46 LegendMM 100.96   -8 LegendNANA
09:00 Legend Double Dagger 0.1 -5.4 66 30 52 LegendMM 100.99     LegendNANA
10:00 Legend Double Dagger -0.2 -3.2 80 29 34 LegendMM 100.99   -7 LegendNANA
11:00 Legend Double Dagger 1.0 -3.8 71 28 44 LegendMM 100.95     LegendNANA
12:00 Legend Double Dagger 0.1 -3.6 76 29 40 LegendMM 100.96     LegendNANA
13:00 Legend Double Dagger 0.9 -4.2 69 29 45 LegendMM 100.93     LegendNANA
14:00 Legend Double Dagger 0.8 -4.2 69 29 47 LegendMM 100.89     LegendNANA
15:00 Legend Double Dagger 0.7 -4.6 67 30 48 LegendMM 100.93     LegendNANA
16:00 Legend Double Dagger 0.3 -3.9 74 30 45 LegendMM 100.94     LegendNANA
17:00 Legend Double Dagger -0.1 -4.3 74 31 36 LegendMM 100.94   -7 LegendNANA
18:00 Legend Double Dagger -0.5 -4.2 76 30 32 LegendMM 100.92   -7 LegendNANA
19:00 Legend Double Dagger -0.3 -4.5 74 31 32 LegendMM 100.86   -7 LegendNANA
20:00 Legend Double Dagger -0.8 -4.6 75 31 28 LegendMM 100.84   -7 LegendNANA
21:00 Legend Double Dagger -0.9 -5.0 74 30 29 LegendMM 100.83   -8 LegendNANA
22:00 Legend Double Dagger -0.9 -5.0 74 29 31 LegendMM 100.78   -8 LegendNANA
23:00 Legend Double Dagger -1.0 -5.6 71 29 30 LegendMM 100.71   -8 LegendNANA

Notes on Data Quality.

Legend

  • E = Estimated
  • M = Missing
  • NA = Not Available
  • ‡ = Partner data that is not subject to review by the National Climate Archives
Date modified: